Regional Weather Roundup
Issued by NWS

Home | Current Version | Previous Version | Text Only | Print | Product List | Glossary Off
Versions: 1 2 3 4 5 6 7 8 9 10 11 12 13 14 15 16 17 18 19 20 21 22 23 24 25 26 27 28 29 30 31 32 33 34 35 36 37 38 39 40 41 42 43 44 45 46 47 48 49 50

000
ASUS43 KBIS 211202
RWRND

NORTH DAKOTA REGIONAL WEATHER ROUNDUP
NATIONAL WEATHER SERVICE BISMARCK ND
700 AM CDT SAT OCT 21 2017

NOTE: "FAIR" INDICATES FEW OR NO CLOUDS BELOW 12,000 FEET WITH NO
SIGNIFICANT WEATHER AND/OR OBSTRUCTIONS TO VISIBILITY.


NDZ001>003-009>011-017-211300-
NORTHWEST NORTH DAKOTA

CITY           SKY/WX    TMP DP  RH WIND       PRES   REMARKS
WILLISTON      CLEAR     46  37  71 S17       29.48R
MINOT          PTCLDY    50  39  66 SW22G28   29.38R
MINOT AFB      PTCLDY    49  38  68 W23G31    29.36R
$$

NDZ018>021-031>035-040>046-211300-
SOUTHWEST NORTH DAKOTA

CITY           SKY/WX    TMP DP  RH WIND       PRES   REMARKS
BISMARCK       MOCLDY    52  39  61 NW20G30   29.46F
6HR MIN TEMP:  52; 6HR MAX TEMP:  65; 6HR PCP: TRACE;

DICKINSON      CLOUDY    46  34  62 W25G36    29.53R
GARRISON         N/A     48  38  68 W18       29.45R
6HR MIN TEMP:  48; 6HR MAX TEMP:  61;

HETTINGER ARPT CLOUDY    47  31  53 W29G38    29.58R
$$

NDZ004>008-012>016-024-026-027-054-211300-
NORTHEAST NORTH DAKOTA

CITY           SKY/WX    TMP DP  RH WIND       PRES   REMARKS
GRAND FORKS    CLEAR     64  58  80 S20G32    29.34R
GRND FRKS AFB  CLEAR     61  57  87 S14       29.34R
DEVILS LAKE    CLEAR     50  38  63 W13       29.35R
$$

NDZ022-023-025-028>030-036>039-047>053-211300-
SOUTHEAST NORTH DAKOTA

CITY           SKY/WX    TMP DP  RH WIND       PRES   REMARKS
FARGO          PTCLDY    64  58  80 S16G31    29.40S
6HR MIN TEMP:  63; 6HR MAX TEMP:  68;

JAMESTOWN      CLEAR     53  37  54 W10       29.41R
$$




USA.gov is the U.S. government's official web portal to all federal, state and local government web resources and services.